Location: Sevilla
(37.3933°N, 5.9839°W)
Time: 13:57:06
(UTC+02:00)

Transit 4A - Visible Passes

Search period start: 21 June 2024 00:00
Search period end: 01 July 2024 00:00
Orbit: 871 x 972 km, 66.8° (Epoch: 21 June)

Date Brightness Start Highest point End Pass type
(mag) Time Alt. Az. Time Alt. Az. Time Alt. Az.
21 Jun 9.0 01:38:36 23° WSW 01:41:32 37° NW 01:46:55 10° NNE visible
22 Jun 8.0 00:02:48 39° SSE 00:04:15 48° ESE 00:09:49 10° NE visible
22 Jun 9.6 01:46:11 11° WSW 01:50:46 26° NW 01:55:35 10° N visible
23 Jun 7.6 00:10:06 29° SSW 00:13:11 74° ESE 00:18:59 10° NNE visible
23 Jun 10.1 01:56:11 10° W 02:00:06 18° NW 02:04:01 10° N visible
23 Jun 9.4 22:33:41 10° SE 22:36:36 14° ESE 22:39:29 10° ENE visible
24 Jun 7.9 00:16:53 13° SW 00:22:11 74° WNW 00:28:01 10° NNE visible
24 Jun 10.5 02:07:01 10° WNW 02:09:31 13° NW 02:12:01 10° NNW visible
24 Jun 8.9 22:40:55 10° SSE 22:45:21 23° ESE 22:49:46 10° ENE visible
25 Jun 8.6 00:25:38 10° SW 00:31:16 49° WNW 00:36:54 10° NNE visible
25 Jun 8.3 22:48:56 10° S 22:54:10 35° ESE 22:59:23 10° NE visible
26 Jun 9.3 00:35:12 10° WSW 00:40:25 33° NW 00:45:40 10° N visible
26 Jun 7.9 22:57:22 10° S 23:03:02 54° ESE 23:08:42 10° NE visible
27 Jun 10.0 00:45:07 10° WSW 00:49:40 23° NW 00:54:15 10° N visible
27 Jun 7.7 23:06:09 10° SSW 23:12:00 84° ESE 23:17:50 10° NNE visible
28 Jun 10.5 00:55:28 10° W 00:59:02 16° NW 01:02:36 10° N visible
28 Jun 11.3 06:27:17 10° NNE 06:29:00 11° NE 06:30:43 10° ENE visible
28 Jun 8.2 23:15:14 10° SW 23:21:01 65° WNW 23:26:49 10° NNE visible
29 Jun 10.8 01:06:40 10° WNW 01:08:29 11° NW 01:10:18 10° NNW visible
29 Jun 10.9 06:34:53 10° N 06:38:28 16° NE 06:42:06 10° E visible
29 Jun 9.0 23:24:35 10° SW 23:30:07 43° WNW 23:35:40 10° NNE visible
30 Jun 9.8 23:34:15 10° WSW 23:39:19 30° NW 23:44:23 10° N visible
